User: anonymous   Login
Location: Caltech
(34.1382°N, 118.1253°W)
Time: 15:24:50
(UTC-08:00)
Language:

Cosmos 1937 Rocket - Orbit

View from above orbital plane
View from above orbital plane
View from above satellite
View from above satellite

Ground track
Ground track

The orbit data is extracted from the following two-line orbital elements,

1 19039U 88029B   15060.42351211  .00000386  00000-0  13541-3 0  9994
2 19039 074.0475 043.8216 0022519 063.6956 097.9272 14.38160213410267
Epoch (UTC): 01 March 2015 10:09:51
Eccentricity: 0.0022519
inclination: 74.0475°
perigee height: 748 km
apogee height: 780 km
right ascension of ascending node: 43.8216°
argument of perigee: 63.6956°
revolutions per day: 14.38160213
mean anomaly at epoch: 97.9272°
orbit number at epoch: 41026

The dashed part of the orbit path shows where the satellite is in the earth's shadow,  

DLR